CW3817 Weather Reports


time (UTC)temp
C
wind
direction
speed
KPH
gust
KPH
rain 1hr
cm
rain 24hr
cm
rain mn
cm
humidity
%
barometer
mb
20260507155205 13 296 4.8 19.3 0.00 2.13 0.61 59 999.4
20260507154205 13 229 6.4 17.7 0.00 2.13 0.61 64 999.4
20260507153205 12 303 3.2 16.1 0.00 2.13 0.61 68 999.4
20260507152204 12 331 4.8 12.9 0.00 2.13 0.61 71 999.5
20260507151226 11 358 6.4 14.5 0.00 2.13 0.61 70 999.6
20260507150225 11 281 3.2 16.1 0.00 2.13 0.61 73 999.6
20260507145204 11 341 1.6 16.1 0.00 2.13 0.61 76 999.9
20260507144204 10 289 6.4 14.5 0.00 2.13 0.61 76 999.9
20260507143204 10 23 3.2 14.5 0.00 2.13 0.61 83 999.9
20260507142203 9 309 6.4 14.5 0.00 2.13 0.61 82 1000.3
20260507141225 8 249 6.4 19.3 0.00 2.13 0.61 83 1000.1
20260507140203 8 252 3.2 11.3 0.00 2.13 0.61 84 1000.1
20260507135204 8 231 6.4 14.5 0.00 2.13 0.61 82 1000.4
20260507134225 8 287 4.8 14.5 0.00 2.13 0.61 82 1000.3
20260507133225 8 310 4.8 14.5 0.00 2.13 0.61 84 1000.3
20260507132204 8 283 4.8 11.3 0.00 2.13 0.61 85 1000.3
20260507131203 8 295 1.6 16.1 0.00 2.13 0.61 84 1000.2
20260507130204 8 307 3.2 11.3 0.00 2.13 0.61 88 1000.2
20260507125203 8 339 3.2 11.3 0.00 2.13 0.61 87 1000.5
20260507124203 8 282 4.8 9.7 0.00 2.13 0.61 89 1000.5
20260507123203 7 301 6.4 16.1 0.00 2.13 0.61 90 1000.5
20260507122203 7 260 1.6 16.1 0.00 2.13 0.61 95 1000.4
20260507121202 7 289 4.8 14.5 0.00 2.13 0.61 95 1000.3
20260507120203 7 275 9.7 17.7 0.00 2.13 0.61 96 1000.3
20260507115203 6 295 4.8 11.3 0.05 2.13 0.61 95 1000.5
20260507114205 6 276 3.2 9.7 0.05 2.13 0.61 95 1000.5
20260507113205 6 233 3.2 9.7 0.03 2.11 0.58 95 1000.5
20260507112204 6 267 1.6 9.7 0.03 2.11 0.58 96 1000.5
20260507111205 6 286 3.2 14.5 0.00 2.08 0.56 96 1000.1
20260507105247 6 286 4.8 12.9 0.05 2.08 0.56 96 1000.3
20260507104205 6 279 4.8 9.7 0.03 2.06 0.53 96 1000.0
20260507103246 5 311 1.6 16.1 0.03 2.06 0.53 95 1000.0
20260507102205 5 276 1.6 9.7 0.00 2.03 0.51 95 999.9
20260507101204 5 286 1.6 6.4 0.00 2.03 0.51 95 1000.0
20260507100204 5 278 3.2 11.3 0.00 2.06 0.51 95 1000.0
20260507095204 6 278 4.8 12.9 0.05 2.03 0.48 95 999.5
20260507094204 6 273 0.0 9.7 0.05 2.03 0.48 94 999.7
20260507093204 6 284 1.6 6.4 0.03 2.03 0.46 94 999.7
20260507092204 6 281 4.8 11.3 0.03 2.06 0.46 94 999.9
20260507091203 6 271 4.8 19.3 0.00 2.06 0.43 94 999.6
20260507090204 6 289 3.2 17.7 0.00 2.06 0.43 94 999.6
20260507085203 6 294 8.0 19.3 0.05 2.03 0.41 95 999.4
20260507084204 6 272 3.2 14.5 0.05 2.03 0.41 96 999.5
20260507083203 6 285 6.4 19.3 0.05 2.03 0.41 96 999.5
20260507082204 6 293 0.0 6.4 0.03 2.03 0.38 96 999.5
20260507081203 6 293 1.6 8.0 0.00 2.03 0.36 96 999.5
20260507080203 6 276 4.8 14.5 0.00 2.03 0.36 96 999.5
20260507075202 6 301 4.8 14.5 0.08 2.06 0.36 96 999.0
20260507074203 7 322 1.6 11.3 0.05 2.06 0.33 96 998.9
20260507072204 7 356 8.0 16.1 0.03 2.06 0.30 96 998.9
20260507071204 7 301 4.8 16.1 0.00 2.06 0.28 96 998.6
20260507070204 7 295 1.6 16.1 0.00 2.06 0.28 96 998.6
20260507065205 7 0 8.0 16.1 0.08 2.03 0.25 96 998.4
20260507064204 7 6 6.4 14.5 0.08 2.03 0.25 96 998.9
20260507063204 7 327 1.6 14.5 0.05 2.01 0.23 96 998.9
20260507062225 7 327 4.8 17.7 0.03 1.98 0.20 96 998.8
20260507061204 7 358 9.7 17.7 0.03 1.98 0.20 97 998.8
20260507055204 7 322 4.8 19.3 0.10 1.96 0.18 97 998.9
20260507054203 7 313 4.8 19.3 0.08 1.93 0.15 97 999.3
20260507053204 7 299 0.0 19.3 0.05 1.91 0.13 97 999.3
20260507052224 8 309 6.4 19.3 0.05 1.91 0.13 98 999.1
20260507051204 8 293 1.6 14.5 0.03 1.88 0.10 98 999.4
20260507050203 8 307 8.0 17.7 0.03 1.88 0.10 98 999.4
20260507045224 8 279 4.8 9.7 0.08 1.85 0.08 98 998.9
20260507044203 8 341 4.8 12.9 0.05 1.83 0.05 97 998.6
20260507043203 8 16 4.8 14.5 0.05 1.83 0.05 97 998.6
20260507042202 8 345 8.0 20.9 0.03 1.80 0.03 97 998.6
20260507041203 8 5 9.7 20.9 0.00 1.78 0.00 97 998.8
20260507035203 8 8 11.3 20.9 0.08 1.78 1.78 96 999.0
20260507034203 8 2 11.3 19.3 0.08 1.78 1.78 96 999.4
20260507033224 8 359 9.7 19.3 0.05 1.75 1.75 95 999.4
20260507032202 9 350 11.3 19.3 0.05 1.75 1.75 94 999.8
20260507031205 10 348 8.0 16.1 0.03 1.73 1.73 93 999.8
20260507030205 10 350 6.4 17.7 0.00 1.70 1.70 91 999.8
20260507025205 11 347 9.7 19.3 0.10 1.70 1.70 97 999.9
20260507024226 12 209 0.0 9.7 0.08 1.68 1.68 98 1000.1
20260507023204 12 195 3.2 14.5 0.05 1.65 1.65 98 1000.1
20260507022205 12 184 6.4 25.7 0.05 1.65 1.65 98 1000.2
20260507021204 12 177 8.0 19.3 0.03 1.63 1.63 98 1000.5
20260507020225 12 181 8.0 19.3 0.00 1.60 1.60 98 1000.5
20260507015205 12 172 11.3 22.5 0.10 1.60 1.60 98 1000.7
20260507014204 12 164 6.4 17.7 0.08 1.57 1.57 98 1000.9
20260507013225 12 167 4.8 11.3 0.05 1.55 1.55 98 1000.9
20260507012204 12 165 0.0 16.1 0.05 1.55 1.55 98 1001.2
20260507011204 12 168 1.6 11.3 0.03 1.55 1.52 98 1000.9
20260507010203 12 165 3.2 8.0 0.00 1.52 1.50 98 1000.9
20260507005204 12 168 3.2 9.7 0.10 1.50 1.47 98 1001.2
20260507003204 12 152 4.8 12.9 0.08 1.50 1.45 98 1001.3
20260507002203 12 184 6.4 20.9 0.05 1.47 1.42 98 1001.3
20260507000205 12 189 6.4 19.3 0.00 1.47 1.37 98 1001.4
20260506235203 12 162 4.8 14.5 0.13 1.45 1.35 98 1001.7
20260506234203 12 178 8.0 17.7 0.10 1.42 1.32 98 1001.9
20260506233224 12 162 9.7 16.1 0.08 1.40 1.30 98 1001.9
20260506232223 12 178 8.0 17.7 0.05 1.40 1.27 98 1001.8
20260506231203 12 172 8.0 17.7 0.03 1.37 1.24 98 1001.5
20260506224203 12 183 9.7 24.1 0.13 1.32 1.17 98 1001.5
20260506222203 12 184 11.3 19.3 0.08 1.27 1.12 98 1001.7
20260506221202 12 169 9.7 22.5 0.05 1.27 1.09 98 1001.5
20260506215204 12 156 14.5 22.5 0.15 1.24 1.02 99 1001.5
20260506214205 12 158 12.9 25.7 0.13 1.22 0.99 99 1001.7
20260506213204 12 190 8.0 22.5 0.10 1.19 0.97 99 1001.7
20260506212205 12 152 6.4 14.5 0.08 1.17 0.94 99 1001.9
20260506211204 12 182 1.6 17.7 0.03 1.12 0.89 99 1002.4
20260506210204 12 170 12.9 24.1 0.00 1.09 0.86 99 1002.4
20260506205205 12 154 6.4 14.5 0.18 1.07 0.84 99 1001.9
20260506204204 12 155 1.6 6.4 0.13 1.02 0.79 99 1002.0
20260506202204 12 164 0.0 4.8 0.08 0.97 0.74 99 1002.4
20260506201204 12 164 1.6 4.8 0.05 0.94 0.71 99 1002.4
20260506200204 12 165 1.6 4.8 0.03 0.91 0.69 99 1002.4
20260506195203 11 175 0.0 8.0 0.13 0.86 0.64 99 1003.0
20260506194204 11 59 0.0 6.4 0.10 0.84 0.61 98 1003.0
20260506193224 11 46 0.0 4.8 0.08 0.81 0.58 98 1003.0
20260506192246 11 46 0.0 0.0 0.05 0.79 0.56 98 1003.0
20260506191204 11 46 0.0 6.4 0.03 0.76 0.53 98 1002.9
20260506190224 11 44 0.0 4.8 0.00 0.74 0.51 97 1002.9
20260506185203 11 44 3.2 8.0 0.10 0.71 0.48 96 1003.2
20260506184204 11 36 6.4 9.7 0.10 0.71 0.48 96 1003.3
20260506183203 11 26 4.8 11.3 0.08 0.69 0.46 95 1003.3
20260506182204 11 44 8.0 14.5 0.05 0.66 0.43 95 1003.8
20260506181203 11 95 1.6 8.0 0.05 0.66 0.43 94 1004.3
20260506180203 11 100 0.0 6.4 0.00 0.61 0.38 93 1004.3
20260506175202 11 100 3.2 8.0 0.10 0.61 0.38 93 1004.4
20260506174205 11 105 1.6 6.4 0.08 0.58 0.36 94 1004.5
20260506173226 11 105 0.0 1.6 0.05 0.56 0.33 93 1004.5
20260506172204 11 105 0.0 0.0 0.03 0.53 0.30 91 1004.6
20260506171226 11 105 0.0 3.2 0.00 0.51 0.28 90 1004.7
20260506170205 11 105 1.6 3.2 0.00 0.51 0.28 90 1004.7
20260506165204 11 105 0.0 0.0 0.00 0.48 0.25 86 1005.1
20260506164205 11 105 0.0 0.0 0.00 0.48 0.25 84 1005.0
20260506163204 11 105 0.0 0.0 0.00 0.48 0.25 84 1005.0
20260506162204 11 105 0.0 4.8 0.00 0.48 0.25 83 1005.0
20260506161203 11 105 0.0 3.2 0.00 0.48 0.25 82 1005.2
20260506160204 11 105 0.0 6.4 0.00 0.48 0.25 83 1005.2